STARLINK-4358, 53225

Orbit data source: Space-Track

STARLINK-4358, 53225 is a payload satellite owned by SpaceX/Seattle (US) in SSO that was launched on Fri, 22 Jul 2022 UTC via an FALCON 9 launch vehicle from the Air Force Western Test Range (AFWTR). Payload-class satellites include a variety of spacecraft equipped with specific instruments for various scientific and technological missions. These include communications satellites like Starlink; space stations such as the ISS; scientific satellites like the Hubble; Earth observation satellites from companies like Planet Labs, Umbra, and HawkEye 360; GPS; miniature CubeSats for education and research; and military/defense satellites.

Loading next visibility...
Identifier
53225, 2022-084AN
Orbit
SSO
Country
Flag of USUS
Related business
Manufacturer
SpaceX/Seattle
Mission
Operational Commercial Communications
Bus & Motor
STARLINK, Unknown motor
Mass
297 kg wet, ~275 kg dry
Launch date (UTC)
2022-07-22 (4 years ago)
Launch vehicle
FALCON 9
Launch site
Air Force Western Test Range (AFWTR)
Object type
Payload
Rocket body
Debris
Shape & HBR
Box + 1 Pan, 10.1 m
Radar Cross Section
13.562 m², Large (>1 m²)

Expand to show TLE details & history
Last TLE update: 2 days ago

TLE from 2 days ago
0 STARLINK-4358
1 53225U 22084AN  26171.44591375  .00001560  00000-0  11201-3 0  9998
2 53225  97.3390 231.3678 0000994 109.8562 250.2773 15.05656248214840
Epoch: 2026-06-20T10:42Z
TLE epoch observation values (Epoch: 2026-06-20T10:42:06.948Z)
Latitude
0.00004°
Longitude
162.17842°
Altitude
552.797 km
Speed
7.585 km/s
True Right ascension
15h 25m 28s
True Declination
0° 00' 00"
Sunlit
Object was in full shadow at epoch
Visualization orbit readout
Latitude
Unknown
Longitude
Unknown
Altitude
Unknown
Speed
Unknown
Apparent Right ascension
Unknown
Apparent Declination
Unknown
Sunlit
N/A
Visualization observer readout
Local Sidereal Time
21:31:36
Azimuth
Unknown
Elevation
Unknown
Doppler factor
Unknown
Orbital elements
Apogee altitude
547.162 km
Perigee altitude
545.786 km
Semi-major axis
6,924.611 km
Eccentricity
0.0001
Inclination
97.339°
RAAN
231.3678°
Arg. of periapsis
109.8562°
True anomaly
250.26658°
Mean anomaly
250.2773°
Eccentric anomaly
250.27194°
Mean motion
3.76661 °/min
Orbital period
95.58 mins
BSTAR
0.00011201
Loading maneuver chart data...
Computing Atmospheric mass density...
Loading historical data...
Loading historical data...
Loading historical data...
Loading historical data...
Loading historical data...
Loading historical data...
Loading historical data...

Documentation

Showing up to 5 results
|